Regional Weather Roundup
Issued by NWS Green Bay, WI

Home | Current Version | Previous Version | Text Only | Print | Product List | Glossary On
Versions: 1 2 3 4 5 6 7 8 9 10 11 12 13 14 15 16 17 18 19 20 21 22 23 24 25 26 27 28 29 30 31 32 33 34 35 36 37 38 39 40 41 42 43 44 45 46 47 48 49 50
475
ASUS43 KGRB 161700
RWRGRB

NORTH-CENTRAL AND NORTHEAST WISCONSIN REGIONAL WEATHER ROUNDUP
NATIONAL WEATHER SERVICE GREEN BAY WI
1100 AM CST TUE JAN 16 2018

WIZ005-009-010>012-018-019-161800-
NORTH CENTRAL WISCONSIN

CITY           SKY/WX    TMP DP  RH WIND       PRES   REMARKS
IRONWOOD       LGT SNOW  17  13  84 NW10      30.53S VSB 1   WCI   5
MANITOWISH WTR NOT AVBL
ARBOR VITAE    NOT AVBL
EAGLE RIVER    FAIR      17   9  71 N9        30.46S WCI   5
LAND O LAKES   NOT AVBL
RHINELANDER    PTSUNNY   18  11  74 N7        30.47S WCI   9
PHILLIPS       PTSUNNY   17  13  86 N3        30.50S
ANTIGO         NOT AVBL
TOMAHAWK       NOT AVBL
MERRILL        FAIR      19  12  76 N8        30.50F WCI   8
$$

WIZ013-073-161800-
NORTHEAST WISCONSIN

CITY           SKY/WX    TMP DP  RH WIND       PRES   REMARKS
IRON MOUNTAIN  LGT SNOW  17  14  88 NW6       30.45S FOG     WCI   9
MARINETTE      FLURRIES  22  16  78 N7        30.51S
$$

WIZ017-030-035>037-045-161800-
CENTRAL WISCONSIN

CITY           SKY/WX    TMP DP  RH WIND       PRES   REMARKS
MEDFORD        NOT AVBL
WAUSAU         FAIR      17  10  74 N9        30.49S WCI   6
MOSINEE        MOSUNNY   18  12  79 N8        30.51S WCI   7
MARSHFIELD     FAIR      18  11  74 N8        30.50F WCI   8
WISC RAPIDS    FAIR      18  10  71 N8        30.53S WCI   8
STEVENS POINT  NOT AVBL
WAUPACA        NOT AVBL
SHAWANO        FAIR      21  12  70 N3        30.50F
CLINTONVILLE   NOT AVBL
WAUTOMA        FAIR      23  12  62 CALM      30.53S
$$

WIZ038-039-048-051-161800-
FOX VALLEY

CITY           SKY/WX    TMP DP  RH WIND       PRES   REMARKS
NWS GREEN BAY  FAIR      19   9  65 NW7       30.50F WCI  10
APPLETON       MOSUNNY   16   7  67 N8        30.48R WCI   5
OSHKOSH        FAIR      16   9  74 N10       30.50S WCI   4
FOND DU LAC    FAIR      16   8  71 NW7       30.50S WCI   6
$$

WIZ022-050-052-161800-
EAST CENTRAL WISCONSIN

CITY           SKY/WX    TMP DP  RH WIND       PRES   REMARKS
EPHRAIM        NOT AVBL
WASHINGTON ISL NOT AVBL
STURGEON BAY   FAIR      15   9  76 N9        30.49F WCI   3
MANITOWOC      FAIR      19   9  65 NW15      30.48S WCI   5
SHEBOYGAN      FAIR      19   8  62 N10       30.47R WCI   7
$$

LMZ563-521-522-541>543-161800-
LAKESHORE

STATION/POSITION TIME  TEMP    WIND        PRES    VSBY  WAVE
                       AIR SEA DIR/SP/G                  HT/PER
                 (UTC) (F)     (DEG/KT/KT) (MB)    (MI)  (FT/S)
SHEBOYGAN LKSHOR 1600   17     330/ 13/ 16 1032.7R
KEWAUNEE LKSHORE 1630   16     330/ 10/ 15 1031.4R
NORTHPORT PIER   1640   14      CALM  /  1 1032.5S
SISTER BAY LKSHO 1605   15      10/  5/  6   N/A
MENOMINEE LKSHOR 1630   15     340/  5/  6 1032.4F
$$




USA.gov is the U.S. government's official web portal to all federal, state and local government web resources and services.